| time (UTC) | temp C | wind direction | speed KPH | gust KPH | rain 1hr cm | rain 24hr cm | rain mn cm | humidity % | barometer mb |
| 20260505113031 | 26 | 108 | 1.6 | 9.7 | 0.00 | 0.08 | 0.00 | 82 | 1017.2 |
| 20260505111538 | 25 | 149 | 1.6 | 9.7 | 0.00 | 0.08 | 0.00 | 84 | 1017.1 |
| 20260505101547 | 25 | 97 | 0.0 | 4.8 | 0.00 | 0.08 | 0.00 | 84 | 1016.4 |
| 20260505100050 | 25 | 54 | 1.6 | 8.0 | 0.00 | 0.08 | 0.00 | 84 | 1016.4 |
| 20260505094550 | 25 | 142 | 0.0 | 6.4 | 0.00 | 0.08 | 0.00 | 85 | 1016.3 |
| 20260505093052 | 25 | 78 | 1.6 | 8.0 | 0.00 | 0.08 | 0.00 | 84 | 1016.2 |
| 20260505091553 | 25 | 82 | 1.6 | 8.0 | 0.00 | 0.08 | 0.00 | 84 | 1016.0 |
| 20260505090054 | 25 | 137 | 6.4 | 16.1 | 0.00 | 0.08 | 0.00 | 85 | 1015.8 |
| 20260505084503 | 25 | 101 | 3.2 | 14.5 | 0.00 | 0.13 | 0.00 | 85 | 1015.6 |
| 20260505083012 | 25 | 137 | 1.6 | 9.7 | 0.00 | 0.13 | 0.00 | 84 | 1015.5 |
| 20260505081515 | 25 | 138 | 1.6 | 11.3 | 0.00 | 0.13 | 0.00 | 83 | 1015.4 |
| 20260505080019 | 25 | 100 | 1.6 | 14.5 | 0.00 | 0.13 | 0.00 | 82 | 1015.2 |
| 20260505074517 | 25 | 139 | 3.2 | 19.3 | 0.00 | 0.13 | 0.00 | 83 | 1015.1 |
| 20260505073041 | 25 | 73 | 4.8 | 14.5 | 0.00 | 0.13 | 0.00 | 85 | 1015.1 |
| 20260505071546 | 25 | 52 | 4.8 | 9.7 | 0.00 | 0.13 | 0.00 | 85 | 1015.1 |
| 20260505070032 | 25 | 35 | 1.6 | 12.9 | 0.00 | 0.13 | 0.00 | 85 | 1015.1 |
| 20260505064544 | 25 | 100 | 1.6 | 9.7 | 0.00 | 0.13 | 0.00 | 86 | 1015.2 |
| 20260505063043 | 25 | 84 | 0.0 | 6.4 | 0.00 | 0.13 | 0.00 | 85 | 1015.3 |
| 20260505061544 | 25 | 172 | 1.6 | 11.3 | 0.00 | 0.13 | 0.00 | 85 | 1015.3 |
| 20260505060046 | 25 | 359 | 0.0 | 12.9 | 0.00 | 0.13 | 0.00 | 83 | 1015.4 |
| 20260505054554 | 25 | 147 | 4.8 | 20.9 | 0.00 | 0.15 | 0.00 | 83 | 1015.5 |
| 20260505053058 | 25 | 359 | 6.4 | 24.1 | 0.00 | 0.15 | 0.00 | 83 | 1015.5 |
| 20260505051550 | 25 | 133 | 3.2 | 9.7 | 0.00 | 0.15 | 0.00 | 83 | 1015.8 |
| 20260505041504 | 26 | 55 | 1.6 | 24.1 | 0.00 | 0.15 | 0.00 | 82 | 1016.2 |
| 20260505040006 | 26 | 43 | 1.6 | 11.3 | 0.00 | 0.15 | 0.00 | 82 | 1016.1 |
| 20260505034507 | 26 | 66 | 1.6 | 9.7 | 0.00 | 0.15 | 0.15 | 81 | 1016.4 |
| 20260505033100 | 26 | 133 | 6.4 | 14.5 | 0.00 | 0.15 | 0.15 | 81 | 1016.5 |
| 20260505031600 | 26 | 68 | 4.8 | 9.7 | 0.00 | 0.15 | 0.15 | 82 | 1016.7 |
| 20260505030021 | 26 | 127 | 1.6 | 11.3 | 0.00 | 0.15 | 0.15 | 79 | 1016.6 |
| 20260505024602 | 26 | 134 | 8.0 | 17.7 | 0.00 | 0.15 | 0.15 | 79 | 1016.5 |
| 20260505023109 | 26 | 43 | 3.2 | 14.5 | 0.00 | 0.15 | 0.15 | 80 | 1016.6 |
| 20260505021603 | 26 | 38 | 3.2 | 8.0 | 0.00 | 0.15 | 0.15 | 79 | 1016.7 |
| 20260505020002 | 26 | 149 | 4.8 | 20.9 | 0.00 | 0.15 | 0.15 | 78 | 1016.6 |
| 20260505014503 | 26 | 127 | 6.4 | 17.7 | 0.00 | 0.15 | 0.15 | 77 | 1016.4 |
| 20260505013055 | 26 | 45 | 9.7 | 24.1 | 0.00 | 0.15 | 0.15 | 78 | 1016.3 |
| 20260505011557 | 26 | 359 | 8.0 | 17.7 | 0.00 | 0.15 | 0.15 | 79 | 1016.2 |
| 20260505010103 | 26 | 157 | 4.8 | 16.1 | 0.00 | 0.15 | 0.15 | 78 | 1016.3 |
| 20260505004559 | 26 | 120 | 4.8 | 12.9 | 0.00 | 0.15 | 0.15 | 78 | 1016.0 |
| 20260505003106 | 26 | 47 | 0.0 | 9.7 | 0.00 | 0.15 | 0.15 | 80 | 1015.9 |
| 20260505001601 | 26 | 21 | 0.0 | 14.5 | 0.00 | 0.15 | 0.15 | 81 | 1015.8 |
| 20260505000001 | 26 | 34 | 0.0 | 6.4 | 0.00 | 0.15 | 0.15 | 80 | 1015.6 |
| 20260504234513 | 26 | 59 | 0.0 | 4.8 | 0.00 | 0.15 | 0.15 | 79 | 1015.6 |
| 20260504233013 | 26 | 56 | 1.6 | 17.7 | 0.00 | 0.15 | 0.15 | 77 | 1015.3 |
| 20260504231514 | 26 | 3.2 | 16.1 | 0.00 | 0.15 | 0.15 | 77 | 1015.0 | |
| 20260504230026 | 26 | 84 | 1.6 | 6.4 | 0.00 | 0.15 | 0.15 | 76 | 1014.9 |
| 20260504224526 | 27 | 359 | 0.0 | 6.4 | 0.00 | 0.15 | 0.15 | 77 | 1014.8 |
| 20260504223037 | 27 | 135 | 0.0 | 4.8 | 0.00 | 0.15 | 0.15 | 76 | 1014.6 |
| 20260504221540 | 27 | 124 | 0.0 | 14.5 | 0.00 | 0.15 | 0.15 | 75 | 1014.6 |
| 20260504220048 | 28 | 160 | 3.2 | 14.5 | 0.00 | 0.15 | 0.15 | 74 | 1014.3 |
| 20260504214550 | 28 | 131 | 3.2 | 11.3 | 0.00 | 0.15 | 0.15 | 74 | 1014.4 |
| 20260504213049 | 28 | 53 | 6.4 | 20.9 | 0.00 | 0.15 | 0.15 | 74 | 1014.2 |
| 20260504211544 | 28 | 66 | 3.2 | 22.5 | 0.00 | 0.15 | 0.15 | 74 | 1014.1 |
| 20260504210045 | 28 | 78 | 1.6 | 11.3 | 0.00 | 0.15 | 0.15 | 72 | 1014.1 |
| 20260504204546 | 29 | 57 | 0.0 | 8.0 | 0.00 | 0.15 | 0.15 | 72 | 1014.0 |
| 20260504203048 | 29 | 10 | 1.6 | 11.3 | 0.00 | 0.15 | 0.15 | 71 | 1013.9 |
| 20260504201551 | 28 | 33 | 3.2 | 9.7 | 0.00 | 0.15 | 0.15 | 70 | 1013.9 |
| 20260504200056 | 28 | 359 | 1.6 | 12.9 | 0.00 | 0.15 | 0.15 | 71 | 1014.0 |
| 20260504194554 | 28 | 122 | 1.6 | 12.9 | 0.00 | 0.15 | 0.15 | 73 | 1014.3 |
| 20260504193003 | 29 | 138 | 1.6 | 4.8 | 0.00 | 0.15 | 0.15 | 73 | 1014.3 |
| 20260504191515 | 29 | 307 | 4.8 | 12.9 | 0.00 | 0.15 | 0.15 | 72 | 1014.3 |
| 20260504190010 | 29 | 105 | 3.2 | 12.9 | 0.00 | 0.15 | 0.15 | 73 | 1014.4 |
| 20260504184518 | 29 | 359 | 1.6 | 12.9 | 0.00 | 0.15 | 0.15 | 73 | 1014.3 |
| 20260504183035 | 29 | 64 | 1.6 | 11.3 | 0.00 | 0.15 | 0.15 | 74 | 1014.4 |
| 20260504181526 | 29 | 130 | 3.2 | 11.3 | 0.00 | 0.15 | 0.15 | 73 | 1014.6 |
| 20260504180035 | 29 | 144 | 1.6 | 6.4 | 0.00 | 0.15 | 0.15 | 74 | 1014.7 |
| 20260504174534 | 29 | 215 | 1.6 | 9.7 | 0.00 | 0.15 | 0.15 | 74 | 1014.9 |
| 20260504173049 | 29 | 359 | 4.8 | 22.5 | 0.00 | 0.15 | 0.15 | 74 | 1015.1 |
| 20260504171529 | 29 | 359 | 4.8 | 14.5 | 0.00 | 0.15 | 0.15 | 74 | 1015.5 |